Regional Weather Roundup
Issued by NWS

Home | Current Version | Previous Version | Graphics & Text | Print | Product List | Glossary Off
Versions: 1 2 3 4 5 6 7 8 9 10 11 12 13 14 15 16 17 18 19 20 21 22 23 24 25 26 27 28 29 30 31 32 33 34 35 36 37 38 39 40 41 42 43 44 45 46 47 48 49 50

292
ASUS43 KDTX 260810
RWRMI
MICHIGAN HOURLY REGIONAL WEATHER ROUNDUP
NATIONAL WEATHER SERVICE DETROIT/PONTIAC MI
400 AM EDT TUE JUL 26 2016

NOTE: "FAIR" INDICATES FEW OR NO CLOUDS BELOW 12,000 FEET WITH NO
SIGNIFICANT WEATHER AND/OR OBSTRUCTION TO VISIBILITY.

MIZ047>049-052>055-059>063-066>070-074>076-081>083-260900-
SOUTHEAST LOWER MICHIGAN

CITY           SKY/WX    TMP DP  RH WIND       PRES   REMARKS
ADRIAN         CLOUDY    67  64  90 N7        30.03S
ALMA           CLEAR     61  61 100 CALM      30.03S
ANN ARBOR      CLEAR     69  62  78 NW6       30.02S
BAD AXE        CLEAR     57  56  97 CALM      30.02R
CARO           CLEAR     60  59  97 CALM      30.01S
DETROIT CITY   CLEAR     71  63  75 CALM      30.02R
DETROIT        PTCLDY    69  60  73 NW6       30.02R
FLINT          CLEAR     64  59  83 W3        30.03R
GROSSE ILE     CLEAR     70  62  75 N6        30.00S
HILLSDALE      CLOUDY    63  61  91 NW5       30.04S
HOWELL         CLEAR     62  60  93 CALM      30.04R

CITY           SKY/WX    TMP DP  RH WIND       PRES   REMARKS
JACKSON        CLEAR     62  62 100 CALM      30.04S FOG
LAMBERTVILLE   PTCLDY    69  64  82 CALM      30.02S
LANSING        CLEAR     63  60  90 CALM      30.04S
LAPEER         FAIR      58  57  96 CALM      30.03S
MASON          CLEAR     62  60  93 S3        30.05R
MONROE         PTCLDY    67  63  89 N7        30.01S
MT. CLEMENS    CLEAR     67  64  87 NW2       30.00R
PONTIAC        CLEAR     67  61  81 CALM      30.02R
PORT HURON     CLEAR     61  61 100 NW3       30.01F
TRI CITIES     CLEAR     66  62  87 SW5       30.03R
MIDLAND        FAIR      59  59 100 CALM      30.02S
TROY           CLEAR     71  60  67 CALM      30.05R
SAGINAW HB     CLEAR     64  59  82 W3        30.01S
$$
MIZ043>046-050>051-056>058-064>065-071>073-077>080-260900-
SOUTHWEST LOWER MICHIGAN

CITY           SKY/WX    TMP DP  RH WIND       PRES   REMARKS
BATTLE CREEK   CLEAR     62  62 100 CALM      30.05S
BENTON HARBOR  CLEAR     64  62  93 CALM      30.03F
BIG RAPIDS     CLEAR     61  61 100 CALM      30.03S
COLDWATER      CLOUDY    63  63 100 CALM      30.04F
FREMONT        FAIR      62  62 100 CALM      30.03S
HOLLAND        CLEAR     64  63  96 CALM      30.04S FOG
GRAND RAPIDS   CLEAR     67  63  87 CALM      30.04S
IONIA          FAIR      64  61  91 W3        30.03S
KALAMAZOO      CLEAR     64  61  90 CALM      30.05S
LUDINGTON      CLEAR     63  63 100 CALM      30.01S FOG
MARSHALL       CLEAR     62  62  98 CALM      30.04F FOG
MOUNT PLEASANT CLEAR     62  62  97 CALM      30.02S
MUSKEGON       CLEAR     67  64  90 CALM      30.03S
SOUTH HAVEN    CLEAR     63  61  94 CALM      30.04S
$$
MIZ016>042-260900-
NORTHERN LOWER MICHIGAN

CITY           SKY/WX    TMP DP  RH WIND       PRES   REMARKS
ALPENA         CLEAR     62  57  83 SW5       30.00S
BEAVER ISLAND  CLEAR     61  58  91 CALM      30.00S
BELLAIRE       FAIR      58  56  95 CALM      30.02S
CADILLAC       CLEAR     57  55  92 CALM      30.03F
CHARLEVOIX     CLEAR     66  62  89 E3        30.03S
FRANKFORT      CLEAR     62  60  93 CALM      30.00F FOG
GAYLORD        FAIR      60  55  83 CALM      30.04S
GRAYLING       FOG       53  52  95 CALM      30.04S VSB 1/2
HARBOR SPRINGS CLEAR     61  59  94 CALM      30.00F
HOUGHTON LAKE  CLEAR     56  55  97 CALM      30.04S
MANISTEE       FOG       59  57  94 CALM      30.01R VSB 1
OSCODA         PTCLDY    60  56  85 W3        30.00S
ROGERS CITY    CLEAR     62  55  79 SW6       30.00S
TRAVERSE CITY  FAIR      63  59  87 CALM      29.99F
$$
MIZ007>008-015-260900-
EASTERN UPPER MICHIGAN

CITY           SKY/WX    TMP DP  RH WIND       PRES   REMARKS
KINROSS        CLEAR     61  58  90 SW3       29.99S
MACKINAC ISLAN CLEAR     67  60  77 SW7       29.99S
NEWBERRY       CLEAR     63  59  88 SW8       29.99S
S. S. MARIE    CLEAR     59  57  93 CALM      29.97S
MUNISING         N/A     67  60  78 S8        29.97
$$
MIZ004>006-011>014-085-260900-
CENTRAL UPPER MICHIGAN

CITY           SKY/WX    TMP DP  RH WIND       PRES   REMARKS
MANISTIQUE     CLEAR     66  59  77 SW3       29.99S
ESCANABA       CLEAR     59  57  94 W6        29.98S
MENOMINEE      PTCLDY   N/A N/A N/A NW3       30.02R
SAWYER-GWINN   CLEAR     59  56  90 S3        30.01S FOG
$$
MIZ001>003-009>011-084-260900-
WESTERN UPPER MICHIGAN

CITY           SKY/WX    TMP DP  RH WIND       PRES   REMARKS
IRON MOUNTAIN  CLEAR     58  54  86 CALM      30.02S
HOUGHTON       PTCLDY    65  58  78 NW7       29.97F
COPPER HARBOR    N/A     72  57  59 NW5       29.94S
IRONWOOD       CLEAR     61  61 100 CALM      30.01R
$$

ABBREVIATIONS USED IN REMARKS
   TC - TEMPERATURE IN CELSIUS
  WCI - WIND CHILL INDEX
   HX - HEAT INDEX
  VSB - VISIBILITY





USA.gov is the U.S. government's official web portal to all federal, state and local government web resources and services.